Home > Weather > Bühl > Past weeks

Flag for Germany Weather for the Past 2 Weeks in Bühl, Baden-Württemberg, Germany

Now
45 °F

Rain showers. Broken clouds.


Feels Like: 38 °F
Forecast: 42 / 65 °F
Wind: 14 mph from Northeast

Location: Karlsruhe - Baden Wurttemberg

Current Time: May 1, 2016 at 8:43:41 AM

Latest Report: May 1, 2016 at 7:50 AM


Visibility: 4 mi

Pressure: 30.07 "Hg

Humidity: 93%

Dew Point: 43 °F

Location of BühlLocation

Historic Weather in Bühl — Graph

°F

Bühl Temperature Yesterday

Maximum temperature yesterday: 63 °F (at 2:20 PM)
Minimum temperature yesterday: 34 °F (at 6:20 AM)
Average temperature yesterday: 50 °F

High & Low Weather Summary for the Past Weeks

 TemperatureHumidityPressure
High70 °F (Apr 21, 3:50 PM)100% (Apr 16, 7:50 AM)30.39 "Hg (Apr 16, 7:50 AM)
Low30 °F (Apr 29, 5:20 AM)33% (Apr 21, 4:20 PM)29.59 "Hg (Apr 26, 5:50 AM)
Average48 °F75%29.99 "Hg
* Reported Apr 16 6:20 AM — May 1 6:20 AM, Bühl, Weather by CustomWeather, © 2016

Note: Actual official high and low records may vary slightly from our data, if they occured in-between our weather recording intervals... More about our weather records

Advertising

Bühl Weather History for the Previous 24 Hours

Scroll right to see more
 ConditionsComfort  
Time TempWeatherWind HumidityBarometerVisibility
6:20 AM
Sun, May 1
45 °FScattered showers. Passing clouds.15 mph93%30.01 "Hg4 mi
5:50 AM45 °FLight rain. Passing clouds.10 mph93%30.01 "Hg6 mi
5:20 AM45 °FSprinkles. Passing clouds.12 mph93%30.01 "Hg4 mi
4:20 AM46 °FPassing clouds.13 mph87%30.01 "HgN/A
12:50 AM46 °FRain. Partly cloudy.5 mph100%30.01 "Hg4 mi
12:20 AM46 °FRain. Partly cloudy.5 mph100%29.98 "Hg4 mi
11:50 PM
Sat, Apr 30
48 °FRain. Partly cloudy.5 mph100%29.98 "Hg4 mi
10:50 PM48 °FRain. Partly cloudy.3 mph100%30.01 "Hg5 mi
10:20 PM48 °FRain. Passing clouds.2 mph100%29.98 "Hg4 mi
9:50 PM48 °FRain. Passing clouds.3 mph100%30.01 "Hg6 mi
9:20 PM48 °FRain showers. Partly sunny.7 mph100%29.98 "HgN/A
8:50 PM48 °FSprinkles. Partly sunny.2 mph94%29.98 "HgN/A
8:20 PM50 °FSprinkles. Broken clouds.1 mph88%29.98 "HgN/A
7:50 PM50 °FSprinkles. Partly sunny.7 mph88%29.98 "Hg5 mi
7:20 PM52 °FThunderstorms. Partly sunny.10 mph77%29.98 "Hg2 mi
7:03 PM54 °FThunderstorms. Broken clouds.8 mph72%29.98 "HgN/A
6:50 PM59 °FScattered showers. Partly sunny.5 mph45%29.95 "HgN/A
6:20 PM61 °FScattered showers. Scattered clouds.9 mph42%29.92 "HgN/A
5:50 PM61 °FSunny.14 mph39%29.89 "Hg10 mi
5:20 PM63 °FPassing clouds.13 mph37%29.92 "HgN/A
4:50 PM63 °FPassing clouds.12 mph37%29.92 "HgN/A
4:20 PM63 °FSunny.13 mph37%29.92 "Hg10 mi
3:50 PM63 °FPassing clouds.12 mph37%29.92 "HgN/A
3:20 PM63 °FPassing clouds.10 mph34%29.95 "HgN/A
2:50 PM63 °FPassing clouds.9 mph37%29.95 "HgN/A
2:20 PM63 °FPassing clouds.9 mph37%29.95 "HgN/A
1:50 PM59 °FPassing clouds.8 mph36%29.98 "HgN/A
1:20 PM59 °FSunny.8 mph45%29.98 "Hg10 mi
12:50 PM57 °FSunny.7 mph59%29.98 "Hg10 mi
12:20 PM55 °FPassing clouds.5 mph59%30.01 "HgN/A
11:50 AM54 °FSunny.5 mph54%30.01 "Hg10 mi
11:20 AM52 °FSunny.3 mph67%30.01 "Hg10 mi
10:50 AM48 °FSunny.1 mph71%30.04 "Hg10 mi
10:20 AM46 °FSunny.2 mph82%30.04 "Hg10 mi
9:50 AM45 °FSunny.5 mph87%30.04 "Hg10 mi
9:20 AM43 °FSunny.5 mph93%30.04 "Hg10 mi
8:50 AM43 °FSunny.3 mph93%30.04 "Hg10 mi
8:20 AM41 °FSunny.1 mph93%30.04 "Hg10 mi
Weather by CustomWeather, © 2016

See weather overviewHow to use our weather pages